Walla Walla, WA
on Thursday, November 22, 2012

Thursday
Previous Day Next Day
Daily Summary
 ActualAverage (KPDT)Record (KPDT)
Temperature
Mean Temperature °F 39°F  
Max Temperature 53°F 46°F 71°F (1933)
Min Temperature 36°F 32°F -5°F (1985)
Degree Days
Heating Degree Days 20 26  
Month to date heating degree days 490  
Since 1 July heating degree days 1032  
Cooling Degree Days 0 0  
Month to date cooling degree days 0  
Year to date cooling degree days 636  
Moisture
Dew Point 31°F   
Average Humidity 65    
Maximum Humidity 86    
Minimum Humidity 41    
Precipitation
Precipitation 0.00 in 0.05 in 0.68 in (1909)
Month to date precipitation 1.11  
Year to date precipitation 10.78  
Snow
Snow 0.00 in 0.10 in 8.00 in (1977)
Month to date snowfall 0.7  
Year to date snowfall 8.5  
Since 1 July snowfall 0.8  
Snow Depth in   
Wind
Wind Speed 7 mph   
Max Wind Speed 12 mph   
Max Gust Speed mph   
Visibility 10 miles   
Events     

Key: T is trace of precipitation, MM is missing value
Source: NWS Daily Summary
Time(PST)TemperatureDew PointHumidity Pressure Visibility Wind DirectionWind SpeedGust SpeedPrecipitationEvents Conditions
12:53 AM 39.0°F 28.0°F 65% 30.34 in 10.0 miles South 9.2 mph - N/A   Clear
1:53 AM 37.0°F 28.0°F 70% 30.37 in 10.0 miles SSE 6.9 mph - N/A   Clear
2:53 AM 37.9°F 28.0°F 68% 30.38 in 10.0 miles South 9.2 mph - N/A   Clear
3:53 AM 39.0°F 28.0°F 65% 30.38 in 10.0 miles South 10.4 mph - N/A   Clear
4:53 AM 37.9°F 28.0°F 68% 30.40 in 10.0 miles SSE 6.9 mph - N/A   Clear
5:53 AM 37.9°F 28.0°F 68% 30.43 in 10.0 miles SSE 5.8 mph - N/A   Clear
6:53 AM 37.0°F 27.0°F 67% 30.44 in 10.0 miles SE 5.8 mph - N/A   Clear
7:53 AM 36.0°F 28.0°F 73% 30.45 in 10.0 miles ESE 6.9 mph - N/A   Clear
8:53 AM 43.0°F 30.9°F 62% 30.46 in 10.0 miles ESE 5.8 mph - N/A   Clear
9:53 AM 46.9°F 28.9°F 50% 30.46 in 10.0 miles ENE 4.6 mph - N/A   Clear
10:53 AM 50.0°F 30.9°F 48% 30.44 in 10.0 miles NNE 5.8 mph - N/A   Clear
11:53 AM 51.1°F 28.0°F 41% 30.43 in 10.0 miles North 5.8 mph - N/A   Clear
12:53 PM 53.1°F 30.9°F 43% 30.41 in 10.0 miles NNE 11.5 mph - N/A   Clear
1:53 PM 51.1°F 33.1°F 50% 30.40 in 10.0 miles North 8.1 mph - N/A   Clear
2:53 PM 50.0°F 34.0°F 54% 30.41 in 10.0 miles North 5.8 mph - N/A   Clear
3:53 PM 45.0°F 34.0°F 65% 30.39 in 10.0 miles ENE 6.9 mph - N/A   Clear
4:53 PM 43.0°F 34.0°F 71% 30.40 in 10.0 miles SSE 5.8 mph - N/A   Clear
5:53 PM 44.1°F 33.1°F 65% 30.40 in 10.0 miles ESE 5.8 mph - N/A   Clear
6:53 PM 39.0°F 30.9°F 73% 30.38 in 10.0 miles East 4.6 mph - N/A   Partly Cloudy
7:53 PM 39.0°F 30.0°F 70% 30.38 in 10.0 miles Calm Calm - N/A   Partly Cloudy
8:53 PM 39.9°F 30.9°F 70% 30.37 in 10.0 miles SE 4.6 mph - N/A   Scattered Clouds
9:53 PM 37.9°F 33.1°F 83% 30.37 in 10.0 miles SSE 5.8 mph - N/A   Clear
10:53 PM 37.9°F 34.0°F 86% 30.37 in 10.0 miles South 5.8 mph - N/A   Clear
11:53 PM 37.0°F 33.1°F 86% 30.36 in 10.0 miles South 6.9 mph - N/A   Clear
Moon Phase
Nov. 22 Nov. 28 Dec. 06 Dec. 13 Dec. 20
Sunrise:07:04 AM (PST) Moon Rise:01:16 PM (PST)11/22
Sunset:04:14 PM (PST) Moon Set:01:12 AM (PST)11/22

Copyright © 2014 The Weather Underground, Inc.